Regional Weather Roundup
Issued by NWS Little Rock, AR

Home | Current Version | Previous Version | Text Only | Print | Product List | Glossary On
Versions: 1 2 3 4 5 6 7 8 9 10 11 12 13 14 15 16 17 18 19 20 21 22 23 24 25 26 27 28 29 30 31 32 33 34 35 36 37 38 39 40 41 42 43 44 45 46 47 48 49 50
000
ASUS44 KLZK 262005
RWRLZK

WEATHER ROUNDUP FOR ARKANSAS
NATIONAL WEATHER SERVICE LITTLE ROCK AR
300 PM CDT MON JUN 26 2017

NOTE: "FAIR" INDICATES FEW OR NO CLOUDS BELOW 12,000 FEET WITH NO
SIGNIFICANT WEATHER AND/OR OBSTRUCTIONS TO VISIBILITY.

ARZ001-003-010-029-262100-
NORTHWEST ARKANSAS

CITY           SKY/WX    TMP DP  RH WIND       PRES   REMARKS
FAYETTEVILLE   SUNNY     82  54  37 S8        30.14F
FORT SMITH     MOSUNNY   86  60  41 VRB7      30.10F HX  86
HARRISON       PTSUNNY   78  61  55 S7        30.15F
BENTONVILLE    SUNNY     82  54  36 SW9       30.16F
ROGERS         SUNNY     83  53  35 W12       30.15F
SILOAM SPGS    SUNNY     84  48  28 S8        30.14F
HIGHFILL       SUNNY     85  52  32 SW8       30.15F
SPRINGDALE     MOSUNNY   82  50  32 SW9       30.16F
$$

ARZ004-005-016-262100-
NORTH CENTRAL ARKANSAS

CITY           SKY/WX    TMP DP  RH WIND       PRES   REMARKS
BATESVILLE     SUNNY     81  57  44 CALM      30.14F
FLIPPIN        MOSUNNY   81  55  41 S5        30.12F
MTN HOME       CLOUDY    79  57  46 CALM      30.15F
$$

ARZ040-041-262100-
WEST CENTRAL ARKANSAS

CITY           SKY/WX    TMP DP  RH WIND       PRES   REMARKS
MENA           PTSUNNY   81  57  44 E5        30.15F
MOUNT IDA      CLOUDY    80  58  46 CALM      30.13F
$$

ARZ009-017-025-026-028-262100-
NORTHEAST ARKANSAS

CITY           SKY/WX    TMP DP  RH WIND       PRES   REMARKS
CORNING        LGT RAIN  81  61  50 SW3       30.14F
JONESBORO      MOSUNNY   81  59  47 VRB6      30.13F
WALNUT RIDGE   SUNNY     81  59  47 CALM      30.13F
BLYTHEVILLE    SUNNY     82  57  42 CALM      30.14F
$$

ARZ022-023-033-042-044-262100-
CENTRAL ARKANSAS

CITY           SKY/WX    TMP DP  RH WIND       PRES   REMARKS
LITTLE ROCK    PTSUNNY   83  59  44 SE3       30.12F
N LITTLE ROCK    N/A     83  62  49 S5        30.11F
JACKSONVILLE   PTSUNNY   84  62  47 S3        30.12F HX  85
CONWAY           N/A     84  61  45 SE5       30.11F
SEARCY         MOSUNNY   85  62  46 CALM      30.14F HX  85
HOT SPRINGS    PTSUNNY   81  62  52 SE3       30.13F
RUSSELLVILLE   CLOUDY    83  62  49 VRB3      30.12F
CLINTON        FAIR      82  61  47 CALM      30.13F
$$

ARZ036-262100-
EAST ARKANSAS

CITY           SKY/WX    TMP DP  RH WIND       PRES   REMARKS
WEST MEMPHIS   SUNNY     83  60  45 CALM      30.11F
$$

ARZ050-053-066-070-073-262100-
SOUTHWEST ARKANSAS

CITY           SKY/WX    TMP DP  RH WIND       PRES   REMARKS
ARKADELPHIA    FAIR      83  59  44 VRB3      30.12F
CAMDEN         SUNNY     86  61  42 N5        30.10F HX  86
TEXARKANA      SUNNY     85  60  42 VRB5      30.10F HX  85
EL DORADO      SUNNY     86  58  38 E8        30.10F HX  85
DE QUEEN       CLOUDY    83  62  49 E5        30.10F
$$

ARZ056-057-069-262100-
SOUTHEAST ARKANSAS

CITY           SKY/WX    TMP DP  RH WIND       PRES   REMARKS
PINE BLUFF     MOSUNNY   83  56  39 SE5       30.13F
STUTTGART      CLOUDY   N/A N/A N/A E3        30.13F
MONTICELLO     MOSUNNY   84  57  39 E6        30.12F

$$





USA.gov is the U.S. government's official web portal to all federal, state and local government web resources and services.